Rhinelander, WI

11:32 PM CDT on March 23, 2017 (GMT -0500)
Rhinelander-Oneida County

Weather History for KRHI - April, 2013

Change the Weather History Date:

Monday, April 29, 2013

  Actual Average Record
Temperature  
Mean Temperature 59 °F 48 °F  
Max Temperature 71 °F 60 °F 89 °F (1952)
Min Temperature 47 °F 35 °F 16 °F (1958)
Degree Days  
Heating Degree Days 6 18  
Month to date heating degree days 882 686  
Since 1 July heating degree days 8611 8481  
Cooling Degree Days 0 0  
Month to date cooling degree days 0 0  
Year to date cooling degree days 0 0  
Growing Degree Days 8 (Base 50)    
Moisture  
Dew Point 49 °F    
Average Humidity 69    
Maximum Humidity 93    
Minimum Humidity 44    
Precipitation  
Precipitation 0.27 in 0.10 in 2.00 in (1984)
Month to date precipitation 4.02 2.48  
Year to date precipitation 8.83 6.09  
Snow  
Snow 0.00 in - 3.70 in (1909)
Month to date snowfall 14.8  
Since 1 July snowfall 83.6  
Snow Depth 0.00 in    
Sea Level Pressure  
Sea Level Pressure 29.78 in    
Wind  
Wind Speed 4 mph (ESE)    
Max Wind Speed 17 mph    
Max Gust Speed 26 mph    
Visibility 5 miles    
Events Fog , Rain    
T = Trace of Precipitation, MM = Missing Value Source: NWS Daily Summary

Daily Weather History Graph

Daily Weather History Graph

Search for Another Location

Airport or City:

Trip Planner

Search our weather history database for the weather conditions in past years. The results will help you decide how hot, cold, wet, or windy it might be!

Date:

Astronomy

Apr. 29, 2013 Rise Set
Actual Time 5:48 AM CDT 8:02 PM CDT
Civil Twilight 5:15 AM CDT 8:35 PM CDT
Nautical Twilight 4:35 AM CDT 9:16 PM CDT
Astronomical Twilight 3:50 AM CDT 10:01 PM CDT
Moon No Moon Rise 9:04 AM CDT (4/29)
Length of Visible Light 15h 19m
Length of Day
14h 14m
Waning Gibbous, 80% of the Moon is Illuminated
Apr 29
Waning Gibbous
May 2
Last Quarter
May 9
New
May 17
First Quarter
May 24
Full

Hourly Weather History & Observations

Time (CDT) Temp. Windchill Dew Point Humidity Pressure Visibility Wind Dir Wind Speed Gust Speed Precip Events Conditions
12:53 AM 55.0 °F - 42.1 °F 62% 29.78 in 10.0 mi NNW 3.5 mph - 0.00 in   Mostly Cloudy
1:53 AM 51.1 °F - 46.9 °F 86% 29.82 in 5.0 mi Calm Calm - 0.05 in Rain Light Rain
2:22 AM 50.0 °F - 48.2 °F 94% 29.79 in 2.5 mi ESE 3.5 mph - 0.10 in Rain Rain
2:36 AM 50.0 °F - 48.2 °F 94% 29.79 in 2.5 mi Calm Calm - 0.15 in Rain Rain
2:53 AM 48.9 °F - 46.9 °F 93% 29.77 in 4.0 mi SE 5.8 mph - 0.16 in Rain Light Rain
3:16 AM 50.0 °F - 48.2 °F 94% 29.78 in 6.0 mi Calm Calm - 0.00 in   Overcast
3:35 AM 50.0 °F - 46.4 °F 87% 29.79 in 7.0 mi Calm Calm - 0.00 in   Overcast
3:45 AM 48.2 °F - 46.4 °F 93% 29.79 in 3.0 mi Calm Calm - 0.01 in Rain Light Rain
3:50 AM 48.2 °F - 46.4 °F 93% 29.79 in 1.8 mi North 3.5 mph - 0.01 in Rain Light Rain
3:53 AM 48.9 °F - 46.9 °F 93% 29.78 in 1.5 mi North 3.5 mph - 0.02 in Rain Light Rain
4:04 AM 48.2 °F - 48.2 °F 100% 29.78 in 2.5 mi Calm Calm - 0.00 in Rain Light Rain
4:15 AM 48.2 °F - 48.2 °F 100% 29.78 in 1.8 mi Calm Calm - 0.00 in   Overcast
4:23 AM 48.2 °F - 46.4 °F 93% 29.79 in 2.5 mi Calm Calm - 0.00 in   Overcast
4:38 AM 50.0 °F - 48.2 °F 94% 29.79 in 5.0 mi Calm Calm - 0.00 in   Overcast
4:53 AM 48.9 °F - 46.9 °F 93% 29.79 in 3.0 mi Calm Calm - 0.00 in   Overcast
5:27 AM 48.2 °F - 46.4 °F 93% 29.80 in 2.5 mi Calm Calm - N/A   Overcast
5:40 AM 48.2 °F - 46.4 °F 93% 29.80 in 3.0 mi Calm Calm - N/A   Mostly Cloudy
5:53 AM 48.9 °F - 46.9 °F 93% 29.80 in 0.5 mi Calm Calm - N/A Fog Fog
6:00 AM 48.2 °F - 46.4 °F 93% 29.79 in 0.5 mi Calm Calm - N/A Fog Fog
6:13 AM 48.2 °F - 46.4 °F 93% 29.79 in 0.2 mi Calm Calm - N/A Fog Fog
6:23 AM 46.4 °F 45.2 °F 46.4 °F 100% 29.79 in 0.5 mi NNE 3.5 mph - N/A Fog Fog
6:32 AM 48.2 °F - 46.4 °F 93% 29.79 in 0.2 mi Calm Calm - N/A Fog Fog
6:53 AM 48.0 °F - 46.0 °F 93% 29.79 in 0.5 mi North 3.5 mph - N/A Fog Fog
7:13 AM 48.2 °F - 46.4 °F 93% 29.80 in 0.5 mi Calm Calm - N/A Fog Fog
7:19 AM 48.2 °F - 46.4 °F 93% 29.80 in 0.5 mi Calm Calm - N/A Fog Fog
7:30 AM 48.2 °F - 48.2 °F 100% 29.80 in 1.0 mi Calm Calm - N/A   Overcast
7:40 AM 48.2 °F - 48.2 °F 100% 29.80 in 0.5 mi Calm Calm - N/A Fog Fog
7:44 AM 50.0 °F - 48.2 °F 94% 29.80 in 0.2 mi Calm Calm - N/A Fog Fog
7:53 AM 50.0 °F - 48.9 °F 96% 29.81 in 0.2 mi SSW 3.5 mph - N/A Fog Fog
7:58 AM 50.0 °F - 48.2 °F 94% 29.80 in 0.5 mi Calm Calm - N/A Fog Fog
8:05 AM 51.8 °F - 50.0 °F 94% 29.80 in 2.0 mi Calm Calm - N/A   Mostly Cloudy
8:13 AM 51.8 °F - 50.0 °F 94% 29.80 in 4.0 mi Calm Calm - N/A   Scattered Clouds
8:39 AM 53.6 °F - 51.8 °F 94% 29.81 in 6.0 mi SW 3.5 mph - N/A   Mostly Cloudy
8:53 AM 55.0 °F - 51.1 °F 86% 29.81 in 7.0 mi West 4.6 mph - N/A   Mostly Cloudy
9:09 AM 55.4 °F - 51.8 °F 88% 29.80 in 7.0 mi West 3.5 mph - N/A   Scattered Clouds
9:22 AM 57.2 °F - 51.8 °F 82% 29.80 in 7.0 mi WNW 3.5 mph - N/A   Mostly Cloudy
9:30 AM 57.2 °F - 51.8 °F 82% 29.80 in 7.0 mi Calm Calm - N/A   Scattered Clouds
9:53 AM 57.9 °F - 52.0 °F 81% 29.80 in 9.0 mi Calm Calm - N/A   Partly Cloudy
10:53 AM 60.1 °F - 48.9 °F 67% 29.80 in 10.0 mi ENE 4.6 mph - N/A   Partly Cloudy
11:53 AM 63.0 °F - 50.0 °F 63% 29.80 in 10.0 mi Variable 4.6 mph - N/A   Scattered Clouds
12:01 PM 62.6 °F - 48.2 °F 59% 29.80 in 10.0 mi ESE 8.1 mph - N/A   Mostly Cloudy
12:21 PM 62.6 °F - 50.0 °F 63% 29.80 in 10.0 mi Calm Calm - N/A   Mostly Cloudy
12:53 PM 64.9 °F - 50.0 °F 58% 29.78 in 10.0 mi Variable 3.5 mph - N/A   Overcast
1:53 PM 66.0 °F - 48.9 °F 54% 29.77 in 10.0 mi ESE 4.6 mph - N/A   Mostly Cloudy
2:53 PM 70.0 °F - 48.0 °F 46% 29.74 in 10.0 mi WSW 8.1 mph 16.1 mph N/A   Scattered Clouds
3:53 PM 70.0 °F - 46.9 °F 44% 29.72 in 10.0 mi South 9.2 mph - N/A   Partly Cloudy
4:53 PM 70.0 °F - 46.9 °F 44% 29.71 in 10.0 mi Variable 6.9 mph - N/A   Scattered Clouds
5:53 PM 68.0 °F - 50.0 °F 52% 29.72 in 10.0 mi SE 6.9 mph 16.1 mph N/A   Overcast
6:53 PM 60.1 °F - 55.9 °F 86% 29.73 in 10.0 mi ESE 5.8 mph - 0.04 in Rain Light Rain
7:53 PM 57.9 °F - 55.0 °F 90% 29.73 in 10.0 mi East 5.8 mph - 0.00 in   Mostly Cloudy
8:53 PM 57.0 °F - 54.0 °F 89% 29.74 in 10.0 mi ESE 5.8 mph - N/A   Overcast
9:53 PM 57.0 °F - 53.1 °F 87% 29.74 in 10.0 mi ESE 4.6 mph - N/A   Overcast
10:53 PM 57.0 °F - 53.1 °F 87% 29.73 in 9.0 mi ESE 5.8 mph - N/A   Overcast
11:53 PM 55.9 °F - 52.0 °F 87% 29.71 in 10.0 mi ESE 4.6 mph - N/A   Mostly Cloudy